COSMOS 2251 DEB, 34344

Orbit data source: Space-Track

COSMOS 2251 DEB, 34344 is space debris in LEO originally from a launch on Wed, 16 Jun 1993 UTC launched from the Plesetsk Missile And Space Complex (PKMTR). The debris from Iridium 33, an American commercial communications satellite, has been tracked extensively since its accidental collision with the defunct Russian satellite Cosmos 2251 in 2009. This event, occurring at high speed in low Earth orbit (LEO), generated thousands of pieces of space debris, significantly increasing the risk of further collisions. The Iridium 33 debris cloud has impacted space traffic management and orbital debris mitigation strategies, making it a subject of ongoing study in space situational awareness.

Loading next visibility...
Identifier
34344, 1993-036PS
Orbit
LEO
Country
Flag of CISCIS
Related business
Manufacturer
Unknown
Mission
Spacecraft
Bus & Motor
Unknown
Mass
Unknown
Launch date (UTC)
1993-06-16 (33 years ago)
Launch vehicle
Unknown
Launch site
Plesetsk Missile And Space Complex (PKMTR)
Object type
Payload
Rocket body
Debris
Shape & HBR
Unknown shape, 0.1 m
Radar Cross Section
Small (<0.1 m²)

Expand to show TLE details & history
Last TLE update: 1 day ago

TLE from 1 day ago
0 COSMOS 2251 DEB
1 34344U 93036PS  26145.05817167  .00001851  00000-0  82416-3 0  9991
2 34344  73.9752 178.4951 0154027 325.6791  59.5524 14.17462492884101
Epoch: 2026-05-25T01:23Z
TLE epoch observation values (Epoch: 2026-05-25T01:23:46.032Z)
Latitude
25.68945°
Longitude
-77.19926°
Altitude
781.718 km
Speed
7.494 km/s
True Right ascension
12h 25m 34s
True Declination
25° 33' 21"
Sunlit
Object was in daylight at epoch
Visualization orbit readout
Latitude
Unknown
Longitude
Unknown
Altitude
Unknown
Speed
Unknown
Apparent Right ascension
Unknown
Apparent Declination
Unknown
Sunlit
N/A
Visualization observer readout
Local Sidereal Time
13:02:09
Azimuth
Unknown
Elevation
Unknown
Doppler factor
Unknown
Orbital elements
Apogee altitude
942.645 km
Perigee altitude
720.547 km
Semi-major axis
7,209.733 km
Eccentricity
0.0154
Inclination
73.9752°
RAAN
178.4951°
Arg. of periapsis
325.6791°
True anomaly
61.08881°
Mean anomaly
59.5524°
Eccentric anomaly
60.31912°
Mean motion
3.54539 °/min
Orbital period
101.54 mins
BSTAR
0.00082416
Loading maneuver chart data...
Computing Atmospheric mass density...
Loading historical data...
Loading historical data...
Loading historical data...
Loading historical data...
Loading historical data...
Loading historical data...
Loading historical data...

Documentation

Showing up to 5 results
|